Location: Lane
(33.5226°N, 79.8788°W)
Time: 04:55:08
(UTC+00:00)

Transit 2A Rocket - Pass Details

Date: 03 October 2022
Orbit: 589 x 911 km, 66.7° (Epoch: 27 November)

Event Time Altitude Azimuth Distance (km) Brightness Sun altitude
Rises 10:20:56 0° 202° (SSW) 2,878 7.7 -12.2°
Reaches altitude 10° 10:23:13 10° 201° (SSW) 1,948 6.9 -11.7°
Maximum altitude 10:27:33 79° 115° (ESE) 607 4.6 -10.8°
Drops below altitude 10° 10:31:49 10° 29° (NNE) 1,919 7.5 -9.9°
Sets 10:34:03 0° 28° (NNE) 2,832 8.4 -9.4°
